Location: Eldred Sherwood Park Lake Dam
(42.9416°N, 93.5655°W)
Time: 08:52:36
(UTC+00:00)

Tiros 1 - Pass Details

Date: 09 November 2024
Orbit: 622 x 653 km, 48.4° (Epoch: 06 December)

Event Time Altitude Azimuth Distance (km) Brightness Sun altitude
Rises 01:50:25 0° 251° (WSW) 2,955 11.4 -31.9°
Reaches altitude 10° 01:52:45 10° 254° (WSW) 2,049 10.4 -32.3°
Enters shadow 01:55:10 30° 261° (W) 1,169 8.9 -32.8°
